SAEZ Airport Information

Runway Information
Runway 11 Length 10827 ft width 197 ft
Elevation 62 ft Threshold 0 ft Heading 102
Runway 29 Length 10827 ft Width 197 ft
Elevation 66 ft Threshold 0 ft Heading 282
Runway 17 Length 10187 ft width 148 ft
Elevation 62 ft Threshold 0 ft Heading 164
Runway 35 Length 10187 ft Width 148 ft
Elevation 67 ft Threshold 984 ft Heading 344
Airport Frequencies
Type A/D Name BAIRES CON Frequency 124.9 MHZ
Type APP Name EZEIZA APP Frequency 119.9 MHZ
Type ATIS Name ATIS Frequency 127.8 MHZ
Type GCCD Name GND/CLNC D Frequency 121.75 MHZ
Type TWR Name EZEIZA TWR Frequency 118.6 MHZ
Airport Navaids
Type VOR-DME Name Ezeiza Frequency 116500 KHZ
Airport Weather Information & NOTAM
ADDS - METARS form results

(1922 UTC 19 July 2018)
 
METAR text: SAEZ 191900Z 25010KT 9999 OVC007 13/13 Q1007 NOSIG
Conditions at: SAEZ (BUENOS AIRES/EZE, AR) observed 1900 UTC 19 July 2018
Temperature: 13.0°C (55°F)
Dewpoint: 13.0°C (55°F) [RH = 100%]
Pressure (altimeter): 29.73 inches Hg (1007.0 mb)
Winds: from the WSW (250 degrees) at 12 MPH (10 knots; 5.2 m/s)
Visibility: 6 or more miles (10+ km)
Ceiling: 700 feet AGL
Clouds: overcast cloud deck at 700 feet AGL
Weather: no significant weather observed at this time